• în România
  • Lista ţărilor
  • Pe 7 zile
  • Temperatura apei
  • Hartă satelitară
  • Meteo pe hartă
  • Widget-uri
  • user-avatar
    Intrare

    Meteo pe oră la Refandy

    Astăzi, 20 August, Luni

    Timp Temperatura Precipitaţii Vânt Presiune Umiditate
    00:00 +10°C° 0 mm 1 m/s 748 mmHg 90%
    01:00 +9°C° 0 mm 1 m/s 748 mmHg 91%
    02:00 +9°C° 0 mm 1 m/s 748 mmHg 91%
    03:00 +9°C° 0 mm 1 m/s 748 mmHg 92%
    04:00 +8°C° 0 mm 1 m/s 748 mmHg 92%
    05:00 +9°C° 0 mm 1 m/s 748 mmHg 90%
    06:00 +10°C° 0 mm 1 m/s 748 mmHg 87%
    07:00 +11°C° 0 mm 1 m/s 748 mmHg 85%
    08:00 +13°C° 0 mm 1 m/s 748 mmHg 78%
    09:00 +15°C° 0 mm 1 m/s 748 mmHg 71%
    10:00 +18°C° 0 mm 1 m/s 747 mmHg 64%
    11:00 +19°C° 0 mm 1 m/s 747 mmHg 60%
    12:00 +18°C° 0 mm 2 m/s 747 mmHg 57%
    13:00 +19°C° 0 mm 2 m/s 747 mmHg 54%
    14:00 +19°C° 0 mm 2 m/s 746 mmHg 55%
    15:00 +19°C° 0 mm 2 m/s 746 mmHg 55%
    16:00 +19°C° 0 mm 2 m/s 746 mmHg 56%
    17:00 +18°C° 0 mm 2 m/s 746 mmHg 62%
    18:00 +18°C° 0 mm 1 m/s 746 mmHg 68%
    19:00 +16°C° 0 mm 1 m/s 746 mmHg 75%
    20:00 +15°C° 0 mm 1 m/s 746 mmHg 77%
    21:00 +14°C° 0 mm 1 m/s 746 mmHg 79%
    22:00 +13°C° 0 mm 1 m/s 746 mmHg 82%
    23:00 +12°C° 0 mm 1 m/s 745 mmHg 83%

    Mâine, 21 August, Marţi

    Timp Temperatura Precipitaţii Vânt Presiune Umiditate
    00:00 +12°C° 0 mm 1 m/s 745 mmHg 85%
    01:00 +10°C° 0 mm 2 m/s 745 mmHg 87%
    02:00 +10°C° 0 mm 2 m/s 745 mmHg 88%
    03:00 +10°C° 0 mm 2 m/s 745 mmHg 89%
    04:00 +10°C° 0 mm 2 m/s 745 mmHg 90%
    05:00 +11°C° 0 mm 3 m/s 745 mmHg 89%
    06:00 +12°C° 0 mm 3 m/s 745 mmHg 87%
    07:00 +12°C° 0 mm 3 m/s 745 mmHg 85%
    08:00 +14°C° 0 mm 3 m/s 744 mmHg 83%
    09:00 +15°C° 0 mm 4 m/s 744 mmHg 80%
    10:00 +18°C° 0 mm 4 m/s 744 mmHg 78%
    11:00 +18°C° 0,1 mm 3 m/s 744 mmHg 79%
    12:00 +19°C° 0,1 mm 3 m/s 744 mmHg 80%
    13:00 +20°C° 0,1 mm 3 m/s 743 mmHg 81%
    14:00 +20°C° 0,3 mm 3 m/s 743 mmHg 80%
    15:00 +21°C° 0,3 mm 3 m/s 743 mmHg 80%
    16:00 +21°C° 0,3 mm 3 m/s 742 mmHg 79%
    17:00 +21°C° 0,6 mm 3 m/s 742 mmHg 83%
    18:00 +20°C° 0,6 mm 3 m/s 742 mmHg 88%
    19:00 +19°C° 0,6 mm 2 m/s 742 mmHg 92%
    20:00 +18°C° 0,3 mm 2 m/s 742 mmHg 93%
    21:00 +18°C° 0,3 mm 2 m/s 742 mmHg 94%
    22:00 +17°C° 0,3 mm 2 m/s 742 mmHg 95%
    23:00 +17°C° 0,5 mm 2 m/s 741 mmHg 95%

    Poimâine, 22 August, Miercuri

    Timp Temperatura Precipitaţii Vânt Presiune Umiditate
    00:00 +17°C° 0,5 mm 2 m/s 741 mmHg 95%
    01:00 +17°C° 0,5 mm 3 m/s 741 mmHg 96%
    02:00 +16°C° 0,1 mm 3 m/s 741 mmHg 96%
    03:00 +16°C° 0,1 mm 3 m/s 741 mmHg 95%
    04:00 +14°C° 0,1 mm 3 m/s 741 mmHg 95%
    05:00 +16°C° 0 mm 3 m/s 740 mmHg 93%
    06:00 +16°C° 0 mm 3 m/s 740 mmHg 92%
    07:00 +15°C° 0 mm 4 m/s 740 mmHg 90%
    08:00 +18°C° 0 mm 4 m/s 740 mmHg 84%
    09:00 +19°C° 0 mm 4 m/s 740 mmHg 78%
    10:00 +21°C° 0 mm 5 m/s 740 mmHg 72%
    11:00 +22°C° 0 mm 5 m/s 739 mmHg 67%
    12:00 +23°C° 0 mm 6 m/s 739 mmHg 62%
    13:00 +24°C° 0 mm 6 m/s 739 mmHg 57%
    14:00 +23°C° 0,2 mm 6 m/s 739 mmHg 62%
    15:00 +23°C° 0,2 mm 6 m/s 739 mmHg 66%
    16:00 +22°C° 0,2 mm 6 m/s 739 mmHg 70%
    17:00 +20°C° 0,2 mm 5 m/s 739 mmHg 76%
    18:00 +17°C° 0,2 mm 5 m/s 739 mmHg 82%
    19:00 +17°C° 0,2 mm 4 m/s 739 mmHg 89%
    20:00 +15°C° 0,1 mm 4 m/s 739 mmHg 90%
    21:00 +14°C° 0,1 mm 3 m/s 740 mmHg 92%
    22:00 +14°C° 0,1 mm 2 m/s 740 mmHg 94%
    23:00 +13°C° 0 mm 2 m/s 740 mmHg 94%

    23 August, Joi

    Timp Temperatura Precipitaţii Vânt Presiune Umiditate
    00:00 +12°C° 0 mm 2 m/s 740 mmHg 95%
    01:00 +10°C° 0 mm 2 m/s 740 mmHg 95%
    02:00 +10°C° 0 mm 2 m/s 740 mmHg 96%
    03:00 +9°C° 0 mm 2 m/s 740 mmHg 96%
    04:00 +9°C° 0 mm 2 m/s 740 mmHg 97%
    05:00 +10°C° 0,1 mm 2 m/s 741 mmHg 96%
    06:00 +10°C° 0,1 mm 3 m/s 741 mmHg 95%
    07:00 +10°C° 0,1 mm 3 m/s 741 mmHg 94%
    08:00 +11°C° 0 mm 4 m/s 741 mmHg 89%
    09:00 +12°C° 0 mm 4 m/s 742 mmHg 84%
    10:00 +13°C° 0 mm 5 m/s 742 mmHg 79%
    11:00 +13°C° 0,1 mm 5 m/s 742 mmHg 76%
    12:00 +13°C° 0,1 mm 6 m/s 742 mmHg 74%
    13:00 +13°C° 0,1 mm 6 m/s 742 mmHg 71%
    14:00 +13°C° 0 mm 6 m/s 743 mmHg 71%
    15:00 +12°C° 0 mm 5 m/s 743 mmHg 72%
    16:00 +12°C° 0 mm 5 m/s 743 mmHg 72%
    17:00 +10°C° 0 mm 5 m/s 744 mmHg 74%
    18:00 +11°C° 0 mm 4 m/s 744 mmHg 76%
    19:00 +10°C° 0 mm 3 m/s 744 mmHg 78%
    20:00 +9°C° 0 mm 3 m/s 744 mmHg 80%
    21:00 +9°C° 0 mm 3 m/s 744 mmHg 83%
    22:00 +8°C° 0 mm 3 m/s 744 mmHg 85%
    23:00 +8°C° 0 mm 3 m/s 744 mmHg 84%

    24 August, Vineri

    Timp Temperatura Precipitaţii Vânt Presiune Umiditate
    00:00 +8°C° 0 mm 3 m/s 744 mmHg 83%
    01:00 +7°C° 0 mm 4 m/s 744 mmHg 82%
    02:00 +7°C° 0 mm 4 m/s 744 mmHg 83%
    03:00 +7°C° 0 mm 4 m/s 744 mmHg 84%
    04:00 +7°C° 0 mm 4 m/s 744 mmHg 85%
    05:00 +8°C° 0 mm 4 m/s 744 mmHg 84%
    06:00 +8°C° 0 mm 5 m/s 744 mmHg 83%
    07:00 +8°C° 0 mm 5 m/s 744 mmHg 83%
    08:00 +10°C° 0 mm 5 m/s 744 mmHg 78%
    09:00 +12°C° 0 mm 5 m/s 744 mmHg 73%
    10:00 +13°C° 0 mm 6 m/s 744 mmHg 69%
    11:00 +14°C° 0,1 mm 6 m/s 743 mmHg 69%
    12:00 +14°C° 0,1 mm 6 m/s 743 mmHg 69%
    13:00 +14°C° 0,1 mm 5 m/s 743 mmHg 69%
    14:00 +14°C° 0,4 mm 5 m/s 743 mmHg 72%
    15:00 +14°C° 0,4 mm 5 m/s 743 mmHg 76%
    16:00 +13°C° 0,4 mm 4 m/s 743 mmHg 79%
    17:00 +13°C° 0,1 mm 4 m/s 743 mmHg 82%
    18:00 +12°C° 0,1 mm 3 m/s 744 mmHg 85%
    19:00 +12°C° 0,1 mm 2 m/s 744 mmHg 88%
    20:00 +10°C° 0 mm 2 m/s 744 mmHg 90%
    21:00 +9°C° 0 mm 2 m/s 744 mmHg 92%
    22:00 +8°C° 0 mm 2 m/s 744 mmHg 94%
    23:00 +8°C° 0 mm 2 m/s 744 mmHg 94%

    25 August, Sâmbătă

    Timp Temperatura Precipitaţii Vânt Presiune Umiditate
    00:00 +8°C° 0 mm 2 m/s 744 mmHg 95%
    01:00 +8°C° 0 mm 2 m/s 745 mmHg 95%
    02:00 +8°C° 0,3 mm 2 m/s 745 mmHg 95%
    03:00 +9°C° 0,3 mm 2 m/s 745 mmHg 95%
    04:00 +9°C° 0,3 mm 3 m/s 745 mmHg 95%
    05:00 +9°C° 0,1 mm 3 m/s 745 mmHg 95%
    06:00 +9°C° 0,1 mm 3 m/s 745 mmHg 95%
    07:00 +10°C° 0,1 mm 3 m/s 745 mmHg 94%
    08:00 +10°C° 0,1 mm 3 m/s 745 mmHg 93%
    09:00 +11°C° 0,1 mm 3 m/s 746 mmHg 92%
    10:00 +11°C° 0,1 mm 3 m/s 746 mmHg 91%
    11:00 +12°C° 0 mm 3 m/s 746 mmHg 89%
    12:00 +13°C° 0 mm 3 m/s 746 mmHg 87%
    13:00 +14°C° 0 mm 4 m/s 746 mmHg 84%
    14:00 +14°C° 0 mm 4 m/s 746 mmHg 84%
    15:00 +15°C° 0 mm 4 m/s 746 mmHg 84%
    16:00 +15°C° 0 mm 4 m/s 746 mmHg 84%
    17:00 +14°C° 0 mm 3 m/s 746 mmHg 86%
    18:00 +14°C° 0 mm 3 m/s 746 mmHg 88%
    19:00 +14°C° 0 mm 3 m/s 746 mmHg 90%
    20:00 +14°C° 0 mm 2 m/s 746 mmHg 91%
    21:00 +14°C° 0 mm 2 m/s 746 mmHg 93%
    22:00 +13°C° 0 mm 2 m/s 746 mmHg 94%
    23:00 +13°C° 0 mm 2 m/s 746 mmHg 95%
    Arată mai mult